weather.gov     
National Weather Service

Terminal Aerodrome Forecast
NWS Homepage
This page is being discontinued on March 12, 2014.
The same data is available at this site. Please update your bookmarks.
Thank you, and we apologize for the inconvenience.
Please send an email to SR-SRH.Webmaster@noaa.gov with any concerns.


Current Version
Previous Version:    01  02  03  04  05  06  07  08  09  10  11  12  13  14  15  16  17  18  19  20  21  22  23  24  25  26  27  28  29  30  
   31  32  33  34  35  36  37  38  39  
[Printable]
460
FTUS44 KLCH 221700
TAFBPT
TAF
KBPT 221722Z 2218/2318 31007KT P6SM VCSH SCT030 SCT250
     FM222000 20007KT P6SM VCSH SCT035 BKN200
     FM230300 VRB03KT P6SM FEW025 BKN250
      TEMPO 2310/2313 5SM BR
     FM231300 VRB05KT P6SM VCTS BKN035CB=


U.S. Dept. of Commerce
NOAA National Weather Service
1325 East West Highway
Silver Spring, MD 20910
E-mail: w-nws.webmaster@noaa.gov
Page last modified: May 16, 2007
NATIONAL WEATHER SERVICE: for Safety, for Work, for Fun - FOR LIFE